Zurück zum Katalog

SL-12 R/B(2)

AktivMEO
NORAD 23516·ROCKET BODY·🇷🇺 Russia

Gestartet Mar 7, 1995 von Baikonur Cosmodrome

Loading…

Nächste Überflüge (nächste 24 Stunden)

TLE

AktuellSource: Space-Track

Epoche: Sep 13, 2026, 11:25 UTC

1 23516U 95009F   26256.47624056 -.00000031  00000-0  00000-0 0  9990
2 23516  63.9324 297.1997 0023709 233.0892 237.3224  2.13308508245563

Verfolge SL-12 R/B(2) in Echtzeit mit AllMySat

Download on the App Store